[[{"header":{"parameterUnit":"m.s-1","parameterCategory":2,"la1":30.2991,"la2":30.254,"lo1":-89.0895,"lo2":-89.0444,"dy":0.0017,"dx":0.0017,"nx":28,"ny":28,"refTime":"2023-08-22T21:00:00:Z","depth":"0","parameterNumber":2,"parameterNumberName":"U-component_of_CURRENTS"},"data":[0,0,0,0,0,0,0,0,0,0,0,0,0,0,0,0,0,0,0,0,0,0,0,0,0,0,0,0,0,0,0,0,0,0,0,0,0,0,0,0,0,0,0,0,0,0,0,0,0,0,0,0,0,0,0,0,0,0,0.252,0.252,0,0.2528,0.2528,0.2528,0.2515,0.2515,0.2515,0.2515,0.2502,0.2502,0.2502,0,0,0,0,0,0,0,0,0,0,0,0,0,0.2464,0.2465,0.252,0.252,0.2521,0.2528,0.2528,0.2528,0.2515,0.2515,0.2515,0.2515,0.2502,0.2502,0.2502,0,0,0,0,0,0,0,0,0,0,0,0,0,0.2479,0.2466,0.252,0.2518,0.2518,0.2528,0.2528,0.2527,0.2515,0.2515,0.2515,0.2515,0.2502,0.2502,0.2502,0.2503,0,0,0.2501,0.25,0,0,0,0,0,0,0,0,0.2478,0.2481,0.2518,0.2518,0.2518,0.2523,0.2504,0.252,0.2516,0.2513,0.2515,0.2515,0.251,0.2509,0.2506,0.2503,0.2502,0.2501,0.25,0.25,0.25,0,0,0,0,0,0,0,0.2477,0.248,0.252,0.2518,0.2519,0.2507,0.2508,0.2506,0.2509,0.2513,0.2513,0.2519,0.2509,0.2507,0.2506,0.2502,0.2501,0.25,0.25,0.25,0.2556,0.2557,0,0,0,0,0,0,0.2485,0.2479,0.252,0.252,0.2501,0.2508,0.251,0.2519,0.251,0.2509,0.2519,0.2519,0.2507,0.2506,0.2505,0.2535,0.25,0.25,0.25,0.2554,0.2556,0.2558,0,0,0,0,0,0,0.2484,0.2488,0.2519,0.2502,0.2506,0.251,0.252,0.252,0.2522,0.2515,0.2514,0.2523,0.2507,0.2506,0.2521,0.2533,0.25,0.2499,0.2552,0.2555,0.2557,0.2576,0,0,0,0,0,0,0.2482,0.2488,0.249,0.2503,0.2507,0.2526,0.2521,0.252,0.2527,0.2526,0.2518,0.2516,0.2507,0.2522,0.252,0.2532,0.2499,0.255,0.2553,0.2556,0.2573,0.2579,0.2584,0,0,0,0,0,0.248,0.2479,0.249,0.2494,0.2512,0.2527,0.2527,0.2527,0.2527,0.2527,0.2535,0.2516,0.2541,0.2522,0.2521,0.2533,0.2548,0.2552,0.2556,0.2571,0.2578,0.2584,0,0,0,0,0,0,0.2452,0.2479,0.249,0.2498,0.2515,0.2526,0.252,0.2532,0.2537,0.2535,0.2532,0.2531,0.2552,0.2547,0.2526,0.2563,0.2544,0.2548,0.2556,0.2563,0.2568,0.2563,0.2499,0,0,0,0,0,0.245,0.2458,0.2486,0.2491,0.2498,0.2513,0.2517,0.2526,0.2536,0.2538,0.2539,0.2548,0.2566,0.2567,0.2576,0.2589,0.2589,0.2601,0.2606,0.261,0.2608,0.2623,0.2629,0.257,0.257,0.257,0,0,0.244,0.2457,0.246,0.2486,0.2493,0.2508,0.2514,0.2523,0.254,0.2536,0.255,0.2564,0.2577,0.2597,0.2605,0.2591,0.2632,0.2615,0.2618,0.2614,0.2628,0.2633,0.2638,0.2573,0.2573,0.2572,0,0,0.2427,0.2439,0.2445,0.2458,0.2482,0.2497,0.2505,0.2526,0.2538,0.2563,0.2573,0.2599,0.2611,0.2628,0.2639,0.268,0.2662,0.2685,0.2697,0.2712,0.2716,0.272,0.274,0.2745,0.2682,0.2682,0.2683,0,0.2416,0.2432,0.2447,0.2458,0.2468,0.2496,0.2509,0.2527,0.2554,0.2572,0.2569,0.262,0.2628,0.2667,0.2685,0.2689,0.2694,0.2667,0.2716,0.272,0.2723,0.2742,0.2748,0.2684,0.2684,0.2684,0.2683,0,0.2416,0.2425,0.2425,0.2454,0.2467,0.2478,0.2514,0.2537,0.256,0.2583,0.2626,0.2648,0.2675,0.2692,0.2699,0.2736,0.2732,0.2722,0.2692,0.273,0.2749,0.2754,0.2686,0.2685,0.2685,0.2685,0,0,0.2408,0.2425,0.2425,0.2436,0.2466,0.2481,0.2514,0.2557,0.2586,0.2616,0.2649,0.2695,0.2706,0.2721,0.2738,0.2756,0.2793,0.2748,0.2748,0.2754,0.2828,0.2904,0.2917,0.2783,0.2784,0.2785,0.2835,0,0.2408,0.2422,0.2433,0.245,0.2463,0.2493,0.2523,0.2563,0.26,0.2637,0.2675,0.2708,0.2718,0.2734,0.2756,0.2786,0.2805,0.278,0.2803,0.2804,0.2855,0.2925,0.297,0.3026,0.284,0.2841,0.2842,0,0.2412,0.2423,0.2435,0.246,0.2468,0.2482,0.2535,0.2565,0.2625,0.2652,0.2691,0.2715,0.2763,0.2755,0.2817,0.2798,0.2815,0.2833,0.2834,0.29,0.289,0.2959,0.3042,0.2757,0.2849,0.2849,0.2848,0,0.2407,0.2425,0.2434,0.244,0.2474,0.2489,0.2513,0.2569,0.2605,0.2657,0.2686,0.2735,0.2764,0.2794,0.284,0.2826,0.2899,0.288,0.2964,0.2969,0.3011,0.3019,0.2811,0.2913,0.2913,0.2913,0.2913,0,0.2405,0.2412,0.243,0.2434,0.246,0.2479,0.2516,0.2553,0.2605,0.2658,0.2686,0.2742,0.2773,0.2821,0.2848,0.294,0.2906,0.2988,0.2997,0.3023,0.3032,0.2789,0.2704,0.2915,0.2914,0.2914,0.2913,0,0.2394,0.2402,0.242,0.2447,0.2455,0.2473,0.2514,0.2551,0.2593,0.2662,0.2678,0.2751,0.284,0.2876,0.2936,0.2967,0.2933,0.3057,0.3095,0.311,0.2954,0.2876,0.2733,0.2634,0.3179,0.3182,0.3184,0,0.2397,0.2401,0.2425,0.2445,0.2454,0.248,0.2509,0.2546,0.2591,0.2688,0.2729,0.2818,0.2926,0.3047,0.3118,0.3199,0.2994,0.3257,0.3251,0.2966,0.2882,0.2727,0.264,0.331,0.3313,0.3315,0.3317,0,0.2415,0.2415,0.2428,0.2467,0.2491,0.2518,0.2557,0.2583,0.2647,0.2724,0.2848,0.2937,0.3082,0.3199,0.3286,0.335,0.3078,0.3311,0.2994,0.2969,0.2808,0.2711,0.3235,0.3338,0.3336,0.3334,0.3333,0.3332,0.2442,0.2452,0.2478,0.2514,0.2541,0.2576,0.2595,0.2655,0.2738,0.2847,0.293,0.308,0.32,0.3375,0.3358,0.3274,0.3223,0.3181,0.3113,0.2976,0.2868,0.3454,0.3579,0.3578,0.3578,0.3577,0.3577,0,0.2506,0.2512,0.2539,0.2579,0.2619,0.2624,0.2656,0.2676,0.2779,0.2912,0.304,0.3195,0.3266,0.3276,0.3254,0.3057,0.2915,0.2875,0.2599,0.2527,0.303,0.3015,0.3048,0.3048,0.3049,0.3049,0.3049,0.3049,0.2553,0.2583,0.2588,0.2665,0.2691,0.2718,0.2735,0.2751,0.2828,0.2931,0.3029,0.3095,0.3086,0.2939,0.2707,0.2655,0.2247,0.2253,0.2028,0.2289,0.2306,0.2322,0.2274,0.2152,0.2151,0.1478,0.1472,0.1468]},{"header":{"parameterUnit":"m.s-1","parameterCategory":2,"la1":30.2991,"la2":30.254,"lo1":-89.0895,"lo2":-89.0444,"dy":0.0017,"dx":0.0017,"nx":28,"ny":28,"refTime":"2023-08-22T21:00:00:Z","depth":"0","parameterNumber":3,"parameterNumberName":"V-component_of_CURRENTS"},"data":[0,0,0,0,0,0,0,0,0,0,0,0,0,0,0,0,0,0,0,0,0,0,0,0,0,0,0,0,0,0,0,0,0,0,0,0,0,0,0,0,0,0,0,0,0,0,0,0,0,0,0,0,0,0,0,0,0,0,-0.0325,-0.0325,0,-0.0357,-0.0358,-0.0358,-0.0399,-0.0399,-0.04,-0.04,-0.0467,-0.0468,-0.0469,0,0,0,0,0,0,0,0,0,0,0,0,0,-0.0331,-0.0331,-0.0325,-0.0325,-0.0326,-0.0357,-0.0358,-0.0358,-0.0399,-0.0399,-0.04,-0.04,-0.0466,-0.0468,-0.0469,0,0,0,0,0,0,0,0,0,0,0,0,0,-0.0345,-0.0331,-0.0325,-0.0347,-0.0349,-0.0357,-0.0358,-0.0359,-0.0399,-0.0399,-0.04,-0.04,-0.0465,-0.0468,-0.047,-0.0472,0,0,-0.0476,-0.0477,0,0,0,0,0,0,0,0,-0.0344,-0.0345,-0.0344,-0.0346,-0.0348,-0.0372,-0.0384,-0.0397,-0.0399,-0.0383,-0.04,-0.0401,-0.0436,-0.044,-0.0449,-0.0475,-0.0478,-0.0476,-0.0478,-0.0479,-0.0479,0,0,0,0,0,0,0,-0.0343,-0.0344,-0.0341,-0.0344,-0.0346,-0.0366,-0.0369,-0.0387,-0.0409,-0.0385,-0.0387,-0.0385,-0.0438,-0.0447,-0.0451,-0.0479,-0.0476,-0.0478,-0.048,-0.048,-0.0536,-0.0536,0,0,0,0,0,0,-0.0331,-0.0343,-0.034,-0.0342,-0.0344,-0.0365,-0.0368,-0.0366,-0.0408,-0.0414,-0.0385,-0.0387,-0.0443,-0.0448,-0.0453,-0.0479,-0.0479,-0.0481,-0.0482,-0.0536,-0.0536,-0.0536,0,0,0,0,0,0,-0.0331,-0.033,-0.0339,-0.0341,-0.0343,-0.0364,-0.0362,-0.0366,-0.0374,-0.0407,-0.0415,-0.0387,-0.0443,-0.045,-0.0474,-0.0481,-0.0482,-0.0483,-0.0536,-0.0536,-0.0536,-0.0517,0,0,0,0,0,0,-0.0331,-0.033,-0.0326,-0.034,-0.0342,-0.034,-0.0361,-0.0367,-0.0371,-0.0374,-0.0411,-0.0418,-0.0444,-0.0471,-0.0476,-0.0484,-0.0485,-0.0535,-0.0536,-0.0536,-0.0517,-0.0516,-0.0515,0,0,0,0,0,-0.0331,-0.0329,-0.0326,-0.0325,-0.0335,-0.034,-0.0343,-0.0362,-0.037,-0.0372,-0.0401,-0.0417,-0.0478,-0.0473,-0.0479,-0.0487,-0.0535,-0.0536,-0.0536,-0.0517,-0.0516,-0.0515,0,0,0,0,0,0,-0.034,-0.0333,-0.033,-0.0328,-0.0328,-0.0345,-0.0351,-0.0356,-0.0379,-0.0385,-0.0418,-0.0427,-0.0451,-0.0469,-0.0463,-0.0505,-0.0509,-0.0511,-0.0493,-0.0492,-0.0491,-0.0484,-0.0487,0,0,0,0,0,-0.0334,-0.0326,-0.0324,-0.0323,-0.0321,-0.0332,-0.0336,-0.0343,-0.0362,-0.0373,-0.0398,-0.0428,-0.0457,-0.0474,-0.0498,-0.0518,-0.0536,-0.0528,-0.0527,-0.0527,-0.0525,-0.0562,-0.0565,-0.0538,-0.0538,-0.0538,0,0,-0.0338,-0.0332,-0.0329,-0.0323,-0.0328,-0.0329,-0.0337,-0.0339,-0.0347,-0.0376,-0.04,-0.0423,-0.046,-0.0488,-0.05,-0.0505,-0.0542,-0.0527,-0.0526,-0.0525,-0.0563,-0.0566,-0.0568,-0.0538,-0.0538,-0.0538,0,0,-0.0343,-0.0335,-0.0329,-0.0326,-0.0321,-0.0326,-0.0322,-0.033,-0.0342,-0.0357,-0.0386,-0.041,-0.0448,-0.048,-0.0502,-0.0509,-0.0534,-0.0517,-0.0512,-0.0549,-0.0551,-0.0554,-0.0573,-0.0577,-0.0521,-0.0521,-0.0521,0,-0.0341,-0.0337,-0.033,-0.0327,-0.0324,-0.0322,-0.032,-0.0331,-0.0348,-0.0358,-0.0362,-0.0421,-0.0447,-0.0491,-0.0496,-0.0507,-0.0527,-0.0512,-0.0548,-0.0551,-0.0553,-0.0573,-0.0578,-0.052,-0.052,-0.052,-0.052,0,-0.0344,-0.0339,-0.0338,-0.0329,-0.0328,-0.0323,-0.0327,-0.0332,-0.0339,-0.0352,-0.0382,-0.0415,-0.0453,-0.0464,-0.0484,-0.0519,-0.0526,-0.0539,-0.0548,-0.0555,-0.0575,-0.058,-0.0519,-0.0519,-0.0519,-0.0519,0,0,-0.0321,-0.0336,-0.0328,-0.0327,-0.0323,-0.032,-0.0332,-0.034,-0.0348,-0.0367,-0.0385,-0.043,-0.0442,-0.0466,-0.0491,-0.052,-0.0553,-0.0536,-0.0539,-0.0552,-0.0624,-0.0606,-0.0611,-0.0576,-0.0577,-0.0578,-0.0627,0,-0.0314,-0.0313,-0.0321,-0.0317,-0.0313,-0.0319,-0.0329,-0.0339,-0.0351,-0.0369,-0.0403,-0.0429,-0.0446,-0.0459,-0.0493,-0.0535,-0.0568,-0.0537,-0.0619,-0.0621,-0.0602,-0.0617,-0.043,-0.0457,-0.0632,-0.0633,-0.0634,0,-0.0291,-0.0297,-0.0293,-0.0305,-0.0303,-0.0305,-0.031,-0.032,-0.0351,-0.0361,-0.0393,-0.0418,-0.0461,-0.0472,-0.0551,-0.0532,-0.0578,-0.0609,-0.0612,-0.0606,-0.0614,-0.0481,-0.0461,-0.0476,-0.0643,-0.0642,-0.0642,0,-0.0251,-0.0266,-0.0262,-0.0262,-0.028,-0.0284,-0.0296,-0.0317,-0.0321,-0.0355,-0.036,-0.0418,-0.0441,-0.0505,-0.0565,-0.0565,-0.0647,-0.0659,-0.0687,-0.0686,-0.0547,-0.0533,-0.0547,-0.0724,-0.0724,-0.0724,-0.0724,0,-0.0218,-0.0214,-0.0246,-0.0236,-0.0235,-0.0259,-0.0259,-0.0275,-0.03,-0.0296,-0.0353,-0.0359,-0.0452,-0.0507,-0.0566,-0.0636,-0.0654,-0.0687,-0.0701,-0.0535,-0.0519,-0.0544,-0.0617,-0.0726,-0.0725,-0.0725,-0.0725,0,-0.0169,-0.0185,-0.018,-0.0205,-0.021,-0.0206,-0.0229,-0.023,-0.0259,-0.0255,-0.0263,-0.0325,-0.0386,-0.0476,-0.0576,-0.0631,-0.0703,-0.0728,-0.0517,-0.0507,-0.0548,-0.0628,-0.0713,-0.0755,-0.0763,-0.0763,-0.0763,0,-0.0147,-0.014,-0.0147,-0.014,-0.0151,-0.0159,-0.0158,-0.0192,-0.0191,-0.0221,-0.0212,-0.0279,-0.0286,-0.043,-0.0519,-0.0617,-0.0694,-0.0551,-0.0525,-0.0527,-0.0628,-0.068,-0.0713,-0.0327,-0.0323,-0.032,-0.0318,0,-0.0116,-0.0113,-0.0114,-0.0099,-0.0092,-0.0088,-0.0096,-0.008,-0.0105,-0.0078,-0.0055,-0.0062,-0.0189,-0.0186,-0.0354,-0.0421,-0.0531,-0.0497,-0.0541,-0.0329,-0.0343,-0.0394,-0.0323,-0.0291,-0.0294,-0.0296,-0.0297,-0.0298,-0.0092,-0.0091,-0.0088,-0.0074,-0.0055,-0.0022,0.0005,0.0035,0.0087,0.0183,0.0142,0.0278,0.0237,0.0054,-0.0146,-0.026,-0.0408,-0.0237,-0.0345,-0.0406,-0.0413,-0.0293,-0.0263,-0.0266,-0.0268,-0.027,-0.0271,0,-0.0087,-0.0092,-0.0073,-0.0052,-0.0019,-0.0013,0.0042,0.0111,0.0231,0.0418,0.052,0.079,0.0687,0.049,0.027,0.0021,-0.0103,-0.0117,-0.0103,-0.0162,-0.0042,0.0017,0.0162,0.0162,0.0162,0.0162,0.0162,0.0162,-0.0088,-0.0087,-0.0086,-0.0039,-0.0008,0.0055,0.0108,0.0275,0.0451,0.081,0.1099,0.1263,0.1328,0.08,0.0408,0.0222,-0.0035,-0.008,-0.0312,-0.015,-0.0167,-0.0184,-0.014,-0.003,-0.0031,-0.0274,-0.0276,-0.0278]}],[{"header":{"parameterUnit":"m.s-1","parameterCategory":2,"la1":30.2991,"la2":30.254,"lo1":-89.0895,"lo2":-89.0444,"dy":0.0017,"dx":0.0017,"nx":28,"ny":28,"refTime":"2023-08-22T21:00:00:Z","depth":"2","parameterNumber":2,"parameterNumberName":"U-component_of_CURRENTS"},"data":[0,0,0,0,0,0,0,0,0,0,0,0,0,0,0,0,0,0,0,0,0,0,0,0,0,0,0,0,0,0,0,0,0,0,0,0,0,0,0,0,0,0,0,0,0,0,0,0,0,0,0,0,0,0,0,0,0,0,0.2907,0.2908,0,0.2992,0.2992,0.2993,0.299,0.299,0.2989,0.2989,0.3056,0.3058,0.306,0,0,0,0,0,0,0,0,0,0,0,0,0,0.2707,0.271,0.2906,0.2908,0.291,0.2992,0.2992,0.2993,0.299,0.299,0.2989,0.2989,0.3055,0.3058,0.306,0,0,0,0,0,0,0,0,0,0,0,0,0,0.2785,0.2711,0.2906,0.2925,0.2928,0.2992,0.2992,0.2993,0.299,0.299,0.2989,0.2989,0.3054,0.3058,0.3061,0.3093,0,0,0.3071,0.3072,0,0,0,0,0,0,0,0,0.2781,0.2791,0.292,0.2924,0.2928,0.2987,0.2947,0.3028,0.2991,0.2958,0.2989,0.2988,0.3037,0.3042,0.3048,0.3096,0.3099,0.3071,0.3073,0.3074,0.3075,0,0,0,0,0,0,0,0.2775,0.2788,0.2932,0.2923,0.2927,0.2918,0.2928,0.2961,0.2993,0.2961,0.2963,0.2986,0.3038,0.3044,0.3049,0.31,0.3071,0.3074,0.3076,0.3077,0.3223,0.3225,0,0,0,0,0,0,0.2785,0.2783,0.2929,0.2935,0.286,0.2923,0.2933,0.2962,0.2993,0.3,0.2986,0.2986,0.3039,0.3045,0.3052,0.3107,0.3074,0.3077,0.3079,0.3221,0.3223,0.3225,0,0,0,0,0,0,0.278,0.2797,0.2926,0.2867,0.2884,0.2928,0.2959,0.2964,0.2993,0.3014,0.3019,0.3013,0.3039,0.3047,0.3098,0.3109,0.3079,0.3082,0.3219,0.3222,0.3224,0.3208,0,0,0,0,0,0,0.2774,0.2795,0.2838,0.2868,0.2888,0.2986,0.2961,0.2966,0.3011,0.3011,0.3039,0.3043,0.3039,0.3093,0.3101,0.3113,0.3084,0.3216,0.322,0.3224,0.3206,0.321,0.3213,0,0,0,0,0,0.2766,0.2831,0.2839,0.2859,0.2939,0.2989,0.2998,0.302,0.3013,0.3039,0.305,0.3043,0.3121,0.3097,0.3106,0.3119,0.3215,0.3219,0.3223,0.3204,0.3209,0.3213,0,0,0,0,0,0,0.2797,0.2839,0.2848,0.2931,0.2966,0.2992,0.3028,0.3038,0.3068,0.3063,0.307,0.3076,0.3128,0.3139,0.3112,0.3177,0.3167,0.3174,0.315,0.3155,0.3158,0.3118,0.3087,0,0,0,0,0,0.2818,0.2848,0.29,0.2961,0.2983,0.3006,0.3036,0.3044,0.307,0.3082,0.3101,0.3124,0.3152,0.3164,0.3198,0.3233,0.3215,0.3251,0.3254,0.3257,0.3235,0.3243,0.3244,0.324,0.324,0.324,0,0,0.2839,0.2873,0.289,0.2965,0.2985,0.2996,0.302,0.3065,0.306,0.3087,0.3101,0.3149,0.3171,0.3205,0.3229,0.3212,0.3248,0.3262,0.3264,0.3239,0.3247,0.3247,0.3247,0.3243,0.3242,0.3242,0,0,0.2856,0.293,0.2937,0.2963,0.3009,0.3023,0.3041,0.308,0.3091,0.312,0.3138,0.3192,0.3229,0.3245,0.3254,0.3305,0.3279,0.3329,0.3295,0.3305,0.3304,0.3303,0.3261,0.3256,0.3315,0.3315,0.3315,0,0.287,0.2902,0.2953,0.296,0.2979,0.3028,0.3029,0.3047,0.3094,0.3096,0.3122,0.3189,0.3235,0.325,0.3275,0.3308,0.3291,0.3269,0.3304,0.3303,0.3302,0.3259,0.3254,0.3314,0.3314,0.3314,0.3314,0,0.2865,0.2898,0.2913,0.2915,0.2948,0.2972,0.2999,0.3026,0.3051,0.3055,0.3105,0.3176,0.3214,0.3248,0.3274,0.33,0.3282,0.3315,0.3278,0.33,0.3255,0.325,0.3314,0.3314,0.3314,0.3314,0,0,0.2851,0.2892,0.2894,0.2888,0.2929,0.2947,0.295,0.2966,0.2964,0.3012,0.3008,0.3095,0.3153,0.3172,0.3238,0.3246,0.3248,0.3276,0.3277,0.3206,0.3224,0.3134,0.3119,0.3285,0.3285,0.3285,0.3186,0,0.2819,0.2815,0.285,0.2839,0.284,0.2884,0.2886,0.2902,0.2935,0.295,0.3,0.3055,0.3115,0.3179,0.3189,0.3262,0.3238,0.3269,0.3237,0.3235,0.313,0.3112,0.2907,0.2796,0.3181,0.318,0.318,0,0.2787,0.279,0.2779,0.2797,0.2804,0.2813,0.2836,0.285,0.2871,0.2901,0.2938,0.2996,0.3052,0.3111,0.3154,0.3172,0.3187,0.3208,0.3206,0.3118,0.3135,0.2845,0.2772,0.3171,0.3171,0.3172,0.3173,0,0.273,0.2741,0.2733,0.2737,0.2763,0.2776,0.2806,0.2836,0.2855,0.2902,0.2929,0.2967,0.3041,0.3054,0.3132,0.3151,0.3137,0.3173,0.3069,0.3061,0.2875,0.2852,0.3149,0.3149,0.315,0.315,0.315,0,0.2683,0.2679,0.2714,0.2705,0.2707,0.2751,0.2771,0.2804,0.2851,0.2869,0.2935,0.2977,0.3041,0.3055,0.3083,0.3051,0.3101,0.3032,0.3028,0.2864,0.2842,0.3172,0.3176,0.3146,0.3147,0.3148,0.3148,0,0.2635,0.2652,0.2641,0.2667,0.2682,0.2696,0.2764,0.2772,0.2849,0.2881,0.2911,0.2985,0.3026,0.3028,0.3058,0.3005,0.2983,0.2951,0.2728,0.2699,0.2896,0.2901,0.2796,0.2792,0.2788,0.2786,0.2783,0,0.2624,0.261,0.2612,0.2606,0.2631,0.2666,0.2682,0.2762,0.2778,0.2896,0.2894,0.2963,0.296,0.2917,0.2859,0.2781,0.2906,0.2536,0.2539,0.2852,0.286,0.287,0.2879,0.2275,0.2269,0.2264,0.226,0,0.26,0.2597,0.2571,0.2547,0.2561,0.257,0.2614,0.2616,0.2712,0.2699,0.2704,0.2719,0.2751,0.2581,0.253,0.2489,0.2529,0.2426,0.2805,0.2412,0.2358,0.2368,0.2394,0.2213,0.2218,0.2221,0.2224,0.2226,0.258,0.2543,0.2496,0.2441,0.2474,0.2454,0.2411,0.2421,0.2374,0.2319,0.2441,0.2329,0.2374,0.2148,0.211,0.2086,0.2261,0.2149,0.2166,0.2189,0.2162,0.2106,0.1905,0.1908,0.191,0.1913,0.1914,0,0.2485,0.244,0.2395,0.2318,0.2284,0.2358,0.2328,0.2223,0.2075,0.2032,0.1942,0.1676,0.1633,0.1732,0.162,0.1626,0.1643,0.1583,0.1586,0.1632,0.1673,0.1622,0.1221,0.1219,0.1217,0.1215,0,0,0.2423,0.2287,0.2199,0.2087,0.2106,0.2011,0.1961,0.1814,0.1712,0.1424,0.1279,0.1378,0.1541,0.125,0.1297,0.1241,0.1418,0.1202,0.1754,0.1795,0.1833,0.1995,0.1967,0,0,0,0,0]},{"header":{"parameterUnit":"m.s-1","parameterCategory":2,"la1":30.2991,"la2":30.254,"lo1":-89.0895,"lo2":-89.0444,"dy":0.0017,"dx":0.0017,"nx":28,"ny":28,"refTime":"2023-08-22T21:00:00:Z","depth":"2","parameterNumber":3,"parameterNumberName":"V-component_of_CURRENTS"},"data":[0,0,0,0,0,0,0,0,0,0,0,0,0,0,0,0,0,0,0,0,0,0,0,0,0,0,0,0,0,0,0,0,0,0,0,0,0,0,0,0,0,0,0,0,0,0,0,0,0,0,0,0,0,0,0,0,0,0,0.0435,0.0434,0,0.0372,0.0371,0.037,0.0271,0.0269,0.0268,0.0267,0.0086,0.0083,0.0079,0,0,0,0,0,0,0,0,0,0,0,0,0,0.0462,0.0461,0.0435,0.0434,0.0434,0.0372,0.0371,0.037,0.0271,0.0269,0.0268,0.0266,0.0087,0.0083,0.0079,0,0,0,0,0,0,0,0,0,0,0,0,0,0.0426,0.0461,0.0435,0.038,0.0375,0.0372,0.0371,0.0369,0.0272,0.0269,0.0267,0.0265,0.0089,0.0084,0.0079,0.009,0,0,0.0063,0.006,0,0,0,0,0,0,0,0,0.0428,0.0425,0.0388,0.0384,0.0378,0.033,0.0314,0.0271,0.0272,0.0307,0.0267,0.0264,0.0161,0.015,0.0139,0.0082,0.0074,0.0062,0.0059,0.0057,0.0055,0,0,0,0,0,0,0,0.0431,0.0427,0.0406,0.0388,0.0382,0.0356,0.0348,0.0306,0.0242,0.0304,0.0297,0.0297,0.0156,0.0145,0.0134,0.0071,0.0062,0.0058,0.0055,0.0053,-0.0028,-0.0027,0,0,0,0,0,0,0.0449,0.043,0.0408,0.0405,0.0402,0.0358,0.0349,0.0345,0.0245,0.0229,0.0299,0.0293,0.0154,0.014,0.0127,0.012,0.0057,0.0052,0.0049,-0.0029,-0.0027,-0.0026,0,0,0,0,0,0,0.045,0.0448,0.0411,0.0419,0.0412,0.036,0.0356,0.0345,0.0312,0.0243,0.0224,0.0275,0.0152,0.0134,0.0084,0.0112,0.005,0.0045,-0.003,-0.0028,-0.0027,0.0114,0,0,0,0,0,0,0.0451,0.0448,0.0441,0.042,0.0413,0.0416,0.0358,0.0345,0.0318,0.0308,0.0217,0.0199,0.0149,0.0093,0.0079,0.0104,0.0041,-0.0031,-0.0029,-0.0027,0.0108,0.012,0.0131,0,0,0,0,0,0.0452,0.0455,0.0441,0.0438,0.0408,0.0418,0.0412,0.0364,0.0319,0.0322,0.0254,0.0201,0.0095,0.009,0.0073,0.0097,-0.0032,-0.003,-0.0028,0.0103,0.0118,0.013,0,0,0,0,0,0,0.0448,0.0446,0.0429,0.0425,0.0426,0.0402,0.0392,0.0364,0.0314,0.0288,0.0211,0.0191,0.0163,0.0107,0.0103,0.0079,0.0024,0.0023,0.0129,0.0142,0.0153,0.0208,0.0037,0,0,0,0,0,0.0452,0.0459,0.0454,0.0451,0.045,0.042,0.041,0.0388,0.0349,0.0323,0.0266,0.0202,0.0167,0.0133,0.0093,0.0073,0.0044,0.0078,0.0089,0.0099,0.0132,0.0123,0.0138,-0.0019,-0.0019,-0.0019,0,0,0.0449,0.0449,0.0449,0.0453,0.0438,0.0464,0.0406,0.0401,0.0422,0.0312,0.0298,0.024,0.0171,0.0159,0.0141,0.0109,0.0123,0.0102,0.0111,0.0139,0.0127,0.0143,0.0157,-0.0018,-0.0018,-0.0018,0,0,0.0469,0.0448,0.0469,0.0479,0.0479,0.0478,0.048,0.0461,0.0446,0.0435,0.0369,0.0339,0.026,0.0243,0.0217,0.0265,0.0189,0.0228,0.0322,0.0313,0.0327,0.0338,0.0306,0.0314,0.0226,0.0227,0.0227,0,0.0464,0.049,0.0476,0.0507,0.0521,0.0491,0.0527,0.0526,0.0495,0.0499,0.0444,0.038,0.0318,0.0332,0.0345,0.0297,0.0259,0.0279,0.0331,0.0342,0.0352,0.0316,0.0323,0.0234,0.0233,0.0232,0.0231,0,0.0518,0.053,0.0542,0.058,0.0599,0.0621,0.0635,0.0642,0.0613,0.0611,0.0609,0.054,0.0498,0.0479,0.0422,0.0462,0.0401,0.0355,0.0307,0.0377,0.0333,0.0338,0.0244,0.0241,0.0239,0.0237,0,0,0.0525,0.0573,0.0574,0.0604,0.0638,0.0663,0.0711,0.0755,0.078,0.0757,0.0788,0.0748,0.0699,0.0668,0.0599,0.0598,0.0623,0.0506,0.0502,0.0492,0.0579,0.053,0.0529,0.0574,0.0576,0.0578,0.0516,0,0.0568,0.0644,0.0658,0.0728,0.0768,0.0773,0.0822,0.0857,0.086,0.0884,0.0854,0.0837,0.0774,0.0731,0.0737,0.065,0.0644,0.0643,0.0498,0.0494,0.0457,0.0537,0.0529,0.0474,0.052,0.052,0.0521,0,0.0613,0.0666,0.0741,0.0808,0.0823,0.0853,0.0922,0.0962,0.1002,0.0997,0.1003,0.096,0.0964,0.0879,0.0826,0.0817,0.0719,0.0658,0.0652,0.057,0.0456,0.0411,0.048,0.0528,0.0527,0.0527,0.0526,0,0.0641,0.0716,0.0781,0.0805,0.0882,0.09,0.0926,0.0979,0.1014,0.1048,0.1056,0.1067,0.1024,0.0969,0.0845,0.0819,0.0775,0.0711,0.0585,0.0578,0.0531,0.0517,0.0682,0.0682,0.0682,0.0682,0.0682,0,0.0687,0.0726,0.0783,0.0821,0.0885,0.0915,0.0969,0.1001,0.1043,0.1104,0.1088,0.1126,0.1039,0.0999,0.0896,0.0771,0.0807,0.0637,0.058,0.0575,0.0566,0.0577,0.0566,0.068,0.068,0.0681,0.0681,0,0.0683,0.0732,0.0804,0.088,0.0894,0.0926,0.0967,0.1017,0.1039,0.1112,0.1115,0.1148,0.1106,0.1017,0.091,0.0803,0.0703,0.0634,0.0627,0.0572,0.0494,0.0491,0.0506,0.0504,0.0502,0.0501,0.05,0,0.068,0.0718,0.0822,0.0865,0.0881,0.0921,0.096,0.1001,0.1061,0.1143,0.1193,0.1168,0.1217,0.1057,0.0866,0.0696,0.067,0.053,0.0499,0.0544,0.0486,0.0485,0.0483,0.0474,0.0473,0.0472,0.0471,0,0.0666,0.0698,0.0773,0.0861,0.0906,0.0974,0.1022,0.1077,0.1153,0.1258,0.1381,0.1426,0.1249,0.11,0.082,0.07,0.057,0.0501,0.0571,0.0521,0.051,0.0454,0.0455,0.0463,0.0464,0.0464,0.0465,0.0465,0.0638,0.0679,0.0773,0.0867,0.0927,0.1017,0.1082,0.119,0.1334,0.1475,0.1502,0.1537,0.1318,0.0969,0.0741,0.0463,0.0507,0.0395,0.0401,0.0406,0.0415,0.0403,0.0335,0.0335,0.0335,0.0335,0.0336,0,0.063,0.0683,0.0768,0.0893,0.0974,0.0991,0.1133,0.125,0.1465,0.1536,0.1649,0.142,0.1229,0.0947,0.0531,0.032,0.0312,0.0233,0.0271,0.0283,0.0292,0.0296,0.0183,0.0182,0.0181,0.0179,0,0,0.0634,0.072,0.0796,0.0924,0.0982,0.109,0.1183,0.1391,0.1498,0.1624,0.1591,0.1552,0.1255,0.0906,0.0632,0.0391,0.0379,0.0341,0.0493,0.0584,0.0595,0.0422,0.0446,0,0,0,0,0]}],[{"header":{"parameterUnit":"m.s-1","parameterCategory":2,"la1":30.2991,"la2":30.254,"lo1":-89.0895,"lo2":-89.0444,"dy":0.0017,"dx":0.0017,"nx":28,"ny":28,"refTime":"2023-08-22T21:00:00:Z","depth":"4","parameterNumber":2,"parameterNumberName":"U-component_of_CURRENTS"},"data":[0,0,0,0,0,0,0,0,0,0,0,0,0,0,0,0,0,0,0,0,0,0,0,0,0,0,0,0,0,0,0,0,0,0,0,0,0,0,0,0,0,0,0,0,0,0,0,0,0,0,0,0,0,0,0,0,0,0,0.0495,0.0495,0,0.0523,0.0524,0.0524,0.0588,0.0589,0.059,0.0591,0.0739,0.0741,0.0744,0,0,0,0,0,0,0,0,0,0,0,0,0,0.0493,0.0493,0.0495,0.0495,0.0495,0.0523,0.0524,0.0524,0.0588,0.0589,0.0591,0.0592,0.0738,0.0741,0.0745,0,0,0,0,0,0,0,0,0,0,0,0,0,0.0507,0.0493,0.0495,0.0529,0.0532,0.0523,0.0524,0.0524,0.0588,0.0589,0.0591,0.0592,0.0736,0.0741,0.0745,0.0739,0,0,0.0758,0.076,0,0,0,0,0,0,0,0,0.0506,0.0508,0.0524,0.0526,0.053,0.0552,0.0577,0.0601,0.0587,0.0569,0.0591,0.0593,0.0684,0.0693,0.0696,0.0746,0.0752,0.0759,0.0761,0.0763,0.0764,0,0,0,0,0,0,0,0.0505,0.0507,0.0509,0.0524,0.0527,0.0541,0.0545,0.0581,0.0621,0.0571,0.0575,0.0573,0.0687,0.0692,0.0701,0.0755,0.0759,0.0762,0.0765,0.0767,0.0852,0.0852,0,0,0,0,0,0,0.0495,0.0506,0.0508,0.0509,0.0519,0.0539,0.0544,0.0545,0.0618,0.0629,0.0572,0.0576,0.0684,0.0696,0.0706,0.0796,0.0763,0.0767,0.077,0.0852,0.0852,0.0852,0,0,0,0,0,0,0.0495,0.0495,0.0507,0.0506,0.0508,0.0537,0.0538,0.0545,0.0584,0.0618,0.0632,0.0608,0.0685,0.07,0.0779,0.0799,0.0769,0.0773,0.0853,0.0852,0.0852,0.0918,0,0,0,0,0,0,0.0495,0.0495,0.0505,0.0505,0.0508,0.054,0.0536,0.0544,0.0577,0.0584,0.0653,0.0666,0.0688,0.0772,0.0783,0.0805,0.0777,0.0853,0.0853,0.0852,0.0916,0.092,0.0923,0,0,0,0,0,0.0495,0.0496,0.0505,0.0506,0.0517,0.0541,0.0546,0.0572,0.0577,0.061,0.0654,0.0666,0.0774,0.0777,0.0789,0.0813,0.0854,0.0853,0.0852,0.0915,0.0919,0.0923,0,0,0,0,0,0,0.0488,0.0502,0.0513,0.0516,0.0546,0.0552,0.0576,0.0586,0.0641,0.0662,0.0687,0.0704,0.0777,0.0775,0.0777,0.0826,0.0804,0.0806,0.0847,0.0852,0.0855,0.0841,0.078,0,0,0,0,0,0.0491,0.0507,0.0522,0.053,0.0549,0.0568,0.0582,0.0607,0.0642,0.0668,0.0703,0.0734,0.0772,0.0802,0.0836,0.0876,0.0882,0.0885,0.0889,0.0892,0.0884,0.0946,0.0956,0.0849,0.0849,0.0849,0,0,0.0483,0.0497,0.0503,0.0532,0.0556,0.0585,0.0584,0.0627,0.0655,0.0677,0.0736,0.0767,0.0788,0.0839,0.0866,0.0849,0.0918,0.0891,0.0894,0.0884,0.0947,0.0958,0.0968,0.0848,0.0849,0.0849,0,0,0.047,0.0502,0.0511,0.0556,0.0605,0.0619,0.0639,0.0671,0.0701,0.0762,0.0772,0.0816,0.0873,0.0883,0.0896,0.093,0.0943,0.0931,0.0939,0.1001,0.1012,0.1021,0.102,0.1029,0.0923,0.0923,0.0923,0,0.0454,0.0485,0.0519,0.0558,0.0598,0.0637,0.0673,0.0701,0.0753,0.0778,0.0799,0.0861,0.0889,0.0925,0.0931,0.0942,0.0962,0.0935,0.101,0.102,0.1028,0.1025,0.1034,0.0926,0.0926,0.0926,0.0925,0,0.0471,0.0505,0.0525,0.0585,0.0631,0.0683,0.073,0.0769,0.0807,0.0832,0.0899,0.0931,0.0966,0.0967,0.0969,0.1018,0.1006,0.1024,0.1012,0.1044,0.1037,0.1045,0.0931,0.093,0.0929,0.0928,0,0,0.0414,0.0507,0.0525,0.0564,0.0668,0.0699,0.0757,0.0811,0.0846,0.0903,0.0952,0.0992,0.1012,0.1022,0.1022,0.1051,0.1121,0.106,0.1062,0.1077,0.1228,0.1158,0.1159,0.1178,0.118,0.1182,0.1193,0,0.0421,0.0475,0.0538,0.0612,0.0651,0.0732,0.078,0.0844,0.09,0.0958,0.0994,0.1055,0.1033,0.1066,0.1096,0.1121,0.1149,0.1113,0.1177,0.1176,0.1129,0.1169,0.1189,0.1199,0.1201,0.1202,0.1203,0,0.0448,0.0476,0.0536,0.0629,0.0659,0.0713,0.0813,0.0868,0.0955,0.0999,0.1058,0.1108,0.1145,0.1148,0.1197,0.1184,0.1211,0.122,0.1222,0.1139,0.1123,0.1162,0.1218,0.1217,0.1215,0.1214,0.1214,0,0.0422,0.0496,0.0538,0.0585,0.0679,0.0728,0.079,0.0884,0.0931,0.1039,0.1088,0.1154,0.1203,0.1248,0.1273,0.1259,0.1336,0.1324,0.1273,0.1266,0.1298,0.1288,0.1387,0.1387,0.1387,0.1387,0.1387,0,0.0439,0.0482,0.0528,0.0571,0.0621,0.0718,0.08,0.0857,0.0957,0.1009,0.1114,0.1151,0.1245,0.1304,0.131,0.1307,0.1376,0.1273,0.1278,0.1317,0.131,0.1302,0.1292,0.1388,0.1388,0.1388,0.1387,0,0.0437,0.047,0.0516,0.0594,0.0619,0.067,0.079,0.0835,0.0939,0.1011,0.1055,0.1172,0.1235,0.1304,0.1377,0.1345,0.1358,0.1353,0.1364,0.1371,0.1223,0.1216,0.1265,0.1263,0.1262,0.126,0.1259,0,0.043,0.0453,0.0522,0.0531,0.0575,0.0651,0.0697,0.0809,0.0851,0.0991,0.1009,0.1136,0.12,0.1229,0.1309,0.1335,0.1333,0.133,0.1283,0.1217,0.1218,0.1214,0.1209,0.1256,0.1256,0.1255,0.1255,0,0.0404,0.0446,0.0484,0.0501,0.0538,0.0566,0.0642,0.0663,0.0786,0.0888,0.0947,0.1021,0.11,0.1164,0.123,0.1239,0.1321,0.1311,0.1313,0.1269,0.1206,0.1208,0.1206,0.1249,0.1249,0.125,0.125,0,0.0375,0.0387,0.0428,0.0452,0.0474,0.046,0.0521,0.0575,0.0633,0.0793,0.0806,0.0943,0.1062,0.1115,0.1154,0.1186,0.1154,0.1115,0.1126,0.1134,0.1095,0.0997,0.0983,0,0,0,0,0,0.0323,0.0335,0.0355,0.0357,0.0388,0.0393,0.0459,0.0524,0.0647,0.0656,0.073,0.0801,0.0896,0.0973,0.0979,0.1089,0.1151,0.1091,0.1107,0.1215,0.1222,0.1194,0,0,0,0,0,0,0.027,0.0301,0.0328,0.0276,0.0267,0.0269,0.0305,0.0389,0.041,0.0555,0.0613,0.0737,0.0842,0.0872,0.0954,0.0979,0.0971,0.1185,0.1183,0.1211,0.1217,0.1223,0.1196,0,0,0,0,0]},{"header":{"parameterUnit":"m.s-1","parameterCategory":2,"la1":30.2991,"la2":30.254,"lo1":-89.0895,"lo2":-89.0444,"dy":0.0017,"dx":0.0017,"nx":28,"ny":28,"refTime":"2023-08-22T21:00:00:Z","depth":"4","parameterNumber":3,"parameterNumberName":"V-component_of_CURRENTS"},"data":[0,0,0,0,0,0,0,0,0,0,0,0,0,0,0,0,0,0,0,0,0,0,0,0,0,0,0,0,0,0,0,0,0,0,0,0,0,0,0,0,0,0,0,0,0,0,0,0,0,0,0,0,0,0,0,0,0,0,0.0313,0.0313,0,0.0297,0.0297,0.0297,0.0295,0.0295,0.0296,0.0296,0.0224,0.0222,0.0219,0,0,0,0,0,0,0,0,0,0,0,0,0,0.0328,0.0328,0.0313,0.0313,0.0313,0.0297,0.0297,0.0297,0.0295,0.0295,0.0296,0.0296,0.0225,0.0222,0.0219,0,0,0,0,0,0,0,0,0,0,0,0,0,0.0316,0.0328,0.0313,0.0312,0.0312,0.0297,0.0297,0.0296,0.0295,0.0295,0.0296,0.0296,0.0226,0.0222,0.0219,0.0187,0,0,0.0209,0.0207,0,0,0,0,0,0,0,0,0.0317,0.0315,0.0312,0.0312,0.0312,0.0301,0.0276,0.0258,0.0295,0.0299,0.0296,0.0297,0.0245,0.0241,0.0234,0.0183,0.018,0.0208,0.0206,0.0205,0.0204,0,0,0,0,0,0,0,0.0317,0.0316,0.0304,0.0312,0.0312,0.0308,0.0307,0.0273,0.0266,0.0298,0.0299,0.0301,0.0245,0.0237,0.0232,0.0179,0.0208,0.0205,0.0203,0.0202,0.0127,0.0127,0,0,0,0,0,0,0.0324,0.0316,0.0305,0.0304,0.0318,0.0308,0.0306,0.0302,0.0268,0.0264,0.03,0.0301,0.0243,0.0236,0.0229,0.022,0.0205,0.0202,0.02,0.0127,0.0127,0.0127,0,0,0,0,0,0,0.0324,0.0323,0.0306,0.0312,0.031,0.0307,0.0302,0.0301,0.0307,0.027,0.0265,0.0309,0.0243,0.0234,0.0219,0.0216,0.02,0.0197,0.0127,0.0127,0.0127,0.0181,0,0,0,0,0,0,0.0325,0.0323,0.0329,0.0313,0.031,0.0308,0.0302,0.0301,0.0308,0.0308,0.0275,0.0269,0.0243,0.0224,0.0216,0.0211,0.0194,0.0127,0.0127,0.0127,0.0179,0.0183,0.0186,0,0,0,0,0,0.0325,0.0332,0.033,0.0329,0.0316,0.0308,0.0307,0.0305,0.0308,0.0311,0.0297,0.0271,0.0218,0.0222,0.0212,0.0206,0.0127,0.0127,0.0127,0.0178,0.0182,0.0186,0,0,0,0,0,0,0.0346,0.0333,0.0329,0.0333,0.0327,0.0309,0.0321,0.0313,0.0304,0.0312,0.0274,0.0266,0.0248,0.0221,0.0226,0.0185,0.0166,0.0165,0.0208,0.0212,0.0216,0.0233,0.0191,0,0,0,0,0,0.0352,0.0354,0.0339,0.0345,0.0347,0.0335,0.0336,0.0332,0.032,0.0318,0.029,0.0264,0.0237,0.0224,0.0194,0.0173,0.0155,0.0161,0.0165,0.0168,0.0175,0.0159,0.0162,0.0128,0.0128,0.0128,0,0,0.0362,0.0357,0.0359,0.035,0.035,0.0353,0.0337,0.0346,0.0347,0.0309,0.0305,0.0274,0.0234,0.0214,0.0203,0.0195,0.0166,0.0168,0.0171,0.0176,0.0159,0.0163,0.0166,0.0128,0.0128,0.0128,0,0,0.0377,0.0382,0.0385,0.0394,0.0397,0.0381,0.0387,0.0372,0.0369,0.0361,0.033,0.0302,0.0266,0.0231,0.0211,0.0213,0.0185,0.0203,0.0234,0.0219,0.0222,0.0224,0.0201,0.0201,0.0205,0.0205,0.0206,0,0.0386,0.0398,0.0386,0.0405,0.0422,0.0397,0.0413,0.0401,0.038,0.038,0.0371,0.0314,0.0272,0.0243,0.0243,0.022,0.0213,0.0223,0.0225,0.0227,0.0228,0.0205,0.0204,0.0208,0.0208,0.0208,0.0207,0,0.0414,0.043,0.0443,0.0451,0.0458,0.0478,0.0462,0.0455,0.0444,0.0432,0.0411,0.0356,0.0328,0.0298,0.0272,0.0255,0.0247,0.0233,0.0219,0.0235,0.0209,0.0207,0.0212,0.0211,0.021,0.0209,0,0,0.0415,0.0449,0.046,0.0479,0.0497,0.0501,0.0505,0.0497,0.0506,0.0475,0.0483,0.0416,0.0397,0.0371,0.0322,0.0295,0.0286,0.0278,0.0276,0.0264,0.0259,0.026,0.0258,0.0286,0.0286,0.0286,0.0235,0,0.0441,0.0479,0.0494,0.0534,0.055,0.0554,0.0561,0.0556,0.0544,0.0541,0.049,0.048,0.0423,0.0414,0.0379,0.0306,0.0286,0.0301,0.0238,0.0236,0.0241,0.0258,0.0286,0.0234,0.0234,0.0233,0.0233,0,0.047,0.049,0.0535,0.0574,0.0587,0.0613,0.0632,0.0638,0.0628,0.0621,0.0602,0.0574,0.0518,0.0481,0.0378,0.0398,0.0343,0.0286,0.0282,0.0266,0.0234,0.0213,0.023,0.023,0.023,0.023,0.0231,0,0.0476,0.0523,0.0559,0.0586,0.0618,0.0649,0.0668,0.0673,0.0688,0.0685,0.07,0.0636,0.0614,0.0532,0.0422,0.041,0.032,0.0284,0.0233,0.0231,0.0221,0.0219,0.0239,0.0239,0.0239,0.0239,0.0239,0,0.0501,0.0534,0.0575,0.0609,0.0661,0.0684,0.0743,0.0742,0.0763,0.0794,0.0757,0.0755,0.0634,0.0571,0.046,0.0346,0.0353,0.0244,0.0224,0.0243,0.0244,0.022,0.0218,0.0237,0.0237,0.0238,0.0238,0,0.0503,0.0533,0.0579,0.0639,0.067,0.0713,0.0803,0.0839,0.085,0.0888,0.0898,0.0849,0.0768,0.0646,0.0504,0.0402,0.0285,0.0252,0.029,0.0271,0.0192,0.0193,0.0172,0.0172,0.0172,0.0172,0.0171,0,0.0507,0.0529,0.0609,0.0657,0.0701,0.0777,0.0839,0.0878,0.0915,0.0939,0.0955,0.0913,0.0866,0.0669,0.0529,0.0336,0.0306,0.0239,0.02,0.0206,0.0187,0.0189,0.0191,0.0171,0.0171,0.0171,0.0171,0,0.0519,0.0551,0.0596,0.0685,0.077,0.0849,0.0938,0.0959,0.1002,0.102,0.1004,0.092,0.0837,0.0673,0.0547,0.0399,0.0268,0.0235,0.0234,0.0197,0.0204,0.0186,0.0189,0.017,0.017,0.017,0.017,0,0.0538,0.0566,0.0637,0.0718,0.0809,0.0891,0.0936,0.0992,0.1026,0.1038,0.1033,0.0949,0.09,0.0708,0.058,0.045,0.0391,0.0313,0.0306,0.0305,0.0353,0.0382,0.0394,0,0,0,0,0,0.0556,0.0602,0.0672,0.0759,0.0842,0.0903,0.0989,0.1023,0.1059,0.1052,0.1038,0.0963,0.0786,0.0715,0.0583,0.0553,0.0359,0.039,0.0263,0.0166,0.0167,0.02,0,0,0,0,0,0,0.0567,0.0642,0.0672,0.0782,0.084,0.0943,0.0993,0.1023,0.1011,0.1024,0.0938,0.091,0.0745,0.0868,0.0578,0.0541,0.0434,0.0319,0.0315,0.0165,0.0166,0.0167,0.0202,0,0,0,0,0]}]]